FW2972 Weather Reports


time (UTC)temp
C
wind
direction
speed
KPH
gust
KPH
rain 1hr
cm
rain 24hr
cm
rain mn
cm
humidity
%
barometer
mb
20260504223021 25 202 3.2 11.3 0.00 0.00 0.00 71 1016.1
20260504222518 25 208 4.8 14.5 0.00 0.00 0.00 70 1016.2
20260504222015 25 210 3.2 8.0 0.00 0.00 0.00 71 1016.3
20260504221513 25 209 3.2 11.3 0.00 0.00 0.00 71 1016.5
20260504221009 25 238 11.3 14.5 0.00 0.00 0.00 70 1016.5
20260504220506 25 144 3.2 11.3 0.00 0.00 0.00 70 1016.5
20260504220003 26 140 3.2 8.0 0.00 0.00 0.00 69 1016.6
20260504215459 26 229 3.2 8.0 0.00 0.00 0.00 69 1016.6
20260504214956 26 168 4.8 17.7 0.00 0.00 0.00 69 1016.6
20260504214452 25 215 1.6 11.3 0.00 0.00 0.00 69 1016.5
20260504213949 25 215 3.2 11.3 0.00 0.00 0.00 70 1016.7
20260504213445 25 97 4.8 25.7 0.00 0.00 0.00 69 1017.0
20260504212943 26 201 1.6 8.0 0.00 0.00 0.00 67 1016.7
20260504212438 26 180 3.2 16.1 0.00 0.00 0.00 66 1016.9
20260504211936 26 142 17.7 25.7 0.00 0.00 0.00 67 1016.8
20260504211432 26 240 4.8 29.0 0.00 0.00 0.00 67 1016.8
20260504210930 27 242 0.0 11.3 0.00 0.00 0.00 66 1016.8
20260504210427 27 254 3.2 9.7 0.00 0.00 0.00 64 1017.1
20260504205924 27 239 3.2 8.0 0.00 0.00 0.00 63 1016.9
20260504205421 28 210 3.2 14.5 0.00 0.00 0.00 61 1017.2
20260504204919 27 192 6.4 20.9 0.00 0.00 0.00 64 1016.8
20260504204417 27 150 3.2 6.4 0.00 0.00 0.00 62 1017.2
20260504203917 27 262 4.8 16.1 0.00 0.00 0.00 62 1017.2
20260504203414 27 225 4.8 11.3 0.00 0.00 0.00 62 1017.3
20260504202909 27 260 0.0 6.4 0.00 0.00 0.00 61 1017.4
20260504202406 27 188 3.2 14.5 0.00 0.00 0.00 62 1017.4
20260504201903 27 107 4.8 9.7 0.00 0.00 0.00 61 1017.5
20260504201401 28 229 4.8 6.4 0.00 0.00 0.00 60 1017.5
20260504200857 27 192 4.8 11.3 0.00 0.00 0.00 61 1017.5
20260504200354 28 235 3.2 8.0 0.00 0.00 0.00 59 1017.6
20260504195851 27 253 3.2 11.3 0.00 0.00 0.00 61 1017.7
20260504195346 28 300 3.2 11.3 0.00 0.00 0.00 59 1017.7
20260504194843 28 48 3.2 6.4 0.00 0.00 0.00 59 1017.9
20260504194339 28 235 6.4 9.7 0.00 0.00 0.00 60 1017.8
20260504193835 27 251 4.8 19.3 0.00 0.00 0.00 61 1017.7
20260504193333 27 231 4.8 11.3 0.00 0.00 0.00 62 1018.2
20260504192831 28 169 4.8 12.9 0.00 0.00 0.00 59 1018.1
20260504192329 27 219 0.0 12.9 0.00 0.00 0.00 59 1018.2
20260504191827 28 260 6.4 8.0 0.00 0.00 0.00 56 1018.2
20260504191324 28 222 4.8 12.9 0.00 0.00 0.00 58 1018.3
20260504190820 28 350 3.2 20.9 0.00 0.00 0.00 59 1018.2
20260504190316 28 112 3.2 17.7 0.00 0.00 0.00 60 1018.4
20260504185813 27 108 4.8 8.0 0.00 0.00 0.00 62 1018.4
20260504185310 27 212 1.6 12.9 0.00 0.00 0.00 61 1018.6
20260504184806 27 92 1.6 12.9 0.00 0.00 0.00 62 1018.2
20260504184302 28 233 3.2 8.0 0.00 0.00 0.00 59 1018.5
20260504183757 27 226 1.6 8.0 0.00 0.00 0.00 60 1018.3
20260504183254 27 209 1.6 14.5 0.00 0.00 0.00 61 1018.3
20260504182753 28 161 1.6 11.3 0.00 0.00 0.00 61 1018.7
20260504182250 27 206 3.2 11.3 0.00 0.00 0.00 59 1018.8
20260504181747 27 171 4.8 17.7 0.00 0.00 0.00 61 1018.7
20260504181244 27 273 3.2 9.7 0.00 0.00 0.00 60 1018.8
20260504180743 27 310 0.0 9.7 0.00 0.00 0.00 61 1018.8
20260504180242 27 220 9.7 20.9 0.00 0.00 0.00 60 1018.9
20260504175739 26 226 0.0 14.5 0.00 0.00 0.00 63 1019.0
20260504175235 26 158 8.0 16.1 0.00 0.00 0.00 62 1019.1
20260504174733 27 170 8.0 17.7 0.00 0.00 0.00 61 1018.8
20260504174231 26 168 8.0 9.7 0.00 0.00 0.00 60 1019.0
20260504173727 27 144 6.4 11.3 0.00 0.00 0.00 59 1019.2
20260504173224 27 231 9.7 24.1 0.00 0.00 0.00 59 1019.4
20260504172721 28 104 1.6 8.0 0.00 0.00 0.00 58 1019.5
20260504172217 27 200 4.8 11.3 0.00 0.00 0.00 60 1019.2
20260504171714 27 261 4.8 8.0 0.00 0.00 0.00 62 1019.6
20260504171211 27 207 6.4 30.6 0.00 0.00 0.00 60 1019.5
20260504170708 27 239 3.2 14.5 0.00 0.00 0.00 61 1019.6
20260504170206 27 227 8.0 11.3 0.00 0.00 0.00 59 1019.6
20260504160124 26 150 3.2 14.5 0.00 0.00 0.00 60 1020.1
20260504151051 25 244 1.6 14.5 0.00 0.00 0.00 67 1020.2
20260504150548 25 204 1.6 14.5 0.00 0.00 0.00 68 1020.3
20260504141014 23 215 4.8 16.1 0.00 0.00 0.00 70 1020.2
20260504140511 23 211 4.8 6.4 0.00 0.00 0.00 71 1020.0
20260504130435 20 155 1.6 3.2 0.00 0.00 0.00 76 1020.2
20260504110322 14 133 0.0 3.2 0.00 0.00 0.00 95 1019.8
20260504100240 15 119 1.6 4.8 0.00 0.00 0.00 92 1019.9
20260504081633 16 132 0.0 1.6 0.00 0.00 0.00 79 1020.8
20260504081129 17 114 1.6 4.8 0.00 0.00 0.00 78 1020.7
20260504080626 17 127 1.6 3.2 0.00 0.00 0.00 77 1021.0
20260504080122 17 112 0.0 3.2 0.00 0.00 0.00 76 1021.0
20260504050439 16 109 1.6 3.2 0.00 0.00 0.00 80 1022.5
20260504045936 16 111 1.6 3.2 0.00 0.00 0.00 80 1022.6
20260504045432 16 141 1.6 3.2 0.00 0.00 0.00 80 1022.9
20260504044928 16 240 0.0 1.6 0.00 0.00 0.00 80 1022.8
20260504044426 16 142 0.0 1.6 0.00 0.00 0.00 79 1022.7
20260504043923 17 119 0.0 1.6 0.00 0.00 0.00 78 1022.7
20260504043420 16 124 0.0 1.6 0.00 0.00 0.00 78 1022.8
20260504042917 17 129 0.0 3.2 0.00 0.00 0.00 76 1023.0
20260504042414 17 119 0.0 1.6 0.00 0.00 0.00 75 1023.1
20260504041910 17 113 0.0 3.2 0.00 0.00 0.00 75 1022.7
20260504041406 17 129 0.0 3.2 0.00 0.00 0.00 74 1022.6
20260504040902 17 120 0.0 1.6 0.00 0.00 0.00 73 1022.6
20260504040400 17 139 0.0 3.2 0.00 0.00 0.00 72 1022.7
20260504035856 17 139 1.6 3.2 0.00 0.00 0.00 72 1022.6
20260504035354 17 157 1.6 3.2 0.00 0.00 0.00 72 1022.8
20260504034850 18 133 1.6 3.2 0.00 0.00 0.00 70 1022.7
20260504034348 18 127 0.0 3.2 0.00 0.00 0.00 70 1023.0
20260504033844 18 144 0.0 3.2 0.00 0.00 0.00 70 1022.9
20260504033343 18 142 0.0 3.2 0.00 0.00 0.00 68 1022.8
20260504032839 18 129 0.0 3.2 0.00 0.00 0.00 68 1022.8
20260504032336 18 135 0.0 3.2 0.00 0.00 0.00 66 1022.7
20260504031833 18 165 1.6 3.2 0.00 0.00 0.00 67 1022.8
20260504031330 19 129 0.0 3.2 0.00 0.00 0.00 65 1022.7
20260504030826 19 135 0.0 6.4 0.00 0.00 0.00 65 1022.7
20260504030324 19 164 3.2 6.4 0.00 0.00 0.00 65 1022.7
20260504025820 19 134 1.6 4.8 0.00 0.00 0.00 65 1022.8
20260504025317 19 128 3.2 6.4 0.00 0.00 0.00 64 1022.6
20260504024813 19 130 3.2 6.4 0.00 0.00 0.00 64 1022.8
20260504024310 20 153 0.0 6.4 0.00 0.00 0.00 63 1022.9
20260504023807 20 141 0.0 8.0 0.00 0.00 0.00 63 1022.9
20260504023303 20 124 0.0 6.4 0.00 0.00 0.00 63 1022.8
20260504022759 20 177 0.0 4.8 0.00 0.00 0.00 62 1022.8
20260504022256 20 153 1.6 8.0 0.00 0.00 0.00 62 1022.7
20260504021752 20 118 0.0 6.4 0.00 0.00 0.00 63 1022.6
20260504021250 20 116 3.2 4.8 0.00 0.00 0.00 62 1022.8
20260504020747 20 172 0.0 8.0 0.00 0.00 0.00 61 1022.7
20260504020243 20 209 1.6 6.4 0.00 0.00 0.00 61 1022.6
20260504015739 20 185 0.0 3.2 0.00 0.00 0.00 60 1022.7
20260504015236 20 226 1.6 4.8 0.00 0.00 0.00 60 1022.8
20260504014732 21 273 0.0 4.8 0.00 0.00 0.00 59 1022.5
20260504014228 21 159 1.6 4.8 0.00 0.00 0.00 59 1022.8
20260504013726 21 180 0.0 9.7 0.00 0.00 0.00 58 1022.7
20260504013224 21 186 0.0 4.8 0.00 0.00 0.00 57 1022.6
20260504012720 21 162 3.2 8.0 0.00 0.00 0.00 58 1022.7
20260504012218 21 180 0.0 4.8 0.00 0.00 0.00 58 1022.4
20260504011715 21 136 4.8 11.3 0.00 0.00 0.00 56 1022.5
20260504011212 21 245 4.8 8.0 0.00 0.00 0.00 55 1022.4
20260504010708 21 149 4.8 9.7 0.00 0.00 0.00 55 1022.4
20260504010203 21 170 3.2 8.0 0.00 0.00 0.00 55 1022.5
20260504005700 21 125 3.2 6.4 0.00 0.00 0.00 54 1022.5
20260504005157 22 219 1.6 4.8 0.00 0.00 0.00 53 1022.3
20260504004655 22 197 1.6 12.9 0.00 0.00 0.00 53 1022.2
20260504004152 22 189 3.2 16.1 0.00 0.00 0.00 53 1022.3
20260504003648 22 132 8.0 11.3 0.00 0.00 0.00 52 1022.5
20260504003145 22 192 1.6 6.4 0.00 0.00 0.00 51 1022.4
20260504002642 22 154 3.2 8.0 0.00 0.00 0.00 51 1022.3
20260504002139 23 247 1.6 6.4 0.00 0.00 0.00 49 1022.4
20260504001637 23 242 4.8 8.0 0.00 0.00 0.00 48 1022.4
20260504001133 23 144 1.6 6.4 0.00 0.00 0.00 48 1022.4
20260504000630 23 198 3.2 11.3 0.00 0.00 0.00 47 1022.5
20260504000127 23 162 4.8 11.3 0.00 0.00 0.00 47 1022.5
20260503235626 24 272 1.6 9.7 0.00 0.00 0.00 46 1022.5
20260503235122 24 159 3.2 11.3 0.00 0.00 0.00 47 1022.5
20260503234620 23 151 3.2 14.5 0.00 0.00 0.00 46 1022.6
20260503234118 24 177 3.2 11.3 0.00 0.00 0.00 47 1022.6
20260503233615 24 186 3.2 19.3 0.00 0.00 0.00 45 1022.8
20260503233110 25 194 3.2 16.1 0.00 0.00 0.00 45 1023.0
20260503232607 25 213 3.2 8.0 0.00 0.00 0.00 46 1022.6
20260503232105 25 128 6.4 17.7 0.00 0.00 0.00 44 1022.7
20260503231603 25 136 4.8 12.9 0.00 0.00 0.00 45 1022.7
20260503231059 25 209 3.2 16.1 0.00 0.00 0.00 44 1022.9
20260503230555 25 152 6.4 12.9 0.00 0.00 0.00 44 1023.1
20260503230053 25 183 6.4 14.5 0.00 0.00 0.00 45 1022.7
20260503225550 25 185 4.8 22.5 0.00 0.00 0.00 45 1022.9
20260503225045 25 146 9.7 16.1 0.00 0.00 0.00 42 1022.8
20260503224543 25 142 4.8 11.3 0.00 0.00 0.00 43 1022.8
20260503224040 25 216 3.2 6.4 0.00 0.00 0.00 44 1022.8
20260503223538 25 114 6.4 9.7 0.00 0.00 0.00 42 1023.0